When you browse on this site, cookies collect data to enhance your experience and personalize the content and advertising you see.
Visit our Privacy Policy to learn more. By continuing to use the site, you agree to this use of cookies and data.
  • In United Kingdom
  • List of Countries
  • For 7 days
  • Water Temperature
  • Weather Map
  • Weather Widgets
  • user-avatar
    Login

    Hourly Weather Exeter

    Today, 19 November, Tuesday

    Time Temperature Precipitation Wind Pressure Humidity
    00:00 +4°C° 0 mm 1 mps 755 mmHg 89%
    01:00 +4°C° 0 mm 1 mps 754 mmHg 88%
    02:00 +3°C° 0 mm 2 mps 754 mmHg 88%
    03:00 +4°C° 0 mm 2 mps 754 mmHg 88%
    04:00 +4°C° 0 mm 2 mps 753 mmHg 88%
    05:00 +4°C° 0 mm 2 mps 753 mmHg 88%
    06:00 +4°C° 0 mm 3 mps 753 mmHg 88%
    07:00 +4°C° 0 mm 3 mps 753 mmHg 89%
    08:00 +5°C° 0 mm 3 mps 753 mmHg 90%
    09:00 +6°C° 0 mm 4 mps 753 mmHg 91%
    10:00 +7°C° 0.1 mm 4 mps 753 mmHg 88%
    11:00 +8°C° 0.1 mm 5 mps 752 mmHg 85%
    12:00 +9°C° 0.1 mm 5 mps 752 mmHg 81%
    13:00 +9°C° 0 mm 5 mps 752 mmHg 83%
    14:00 +9°C° 0 mm 5 mps 751 mmHg 84%
    15:00 +8°C° 0 mm 5 mps 751 mmHg 85%
    16:00 +8°C° 0 mm 5 mps 751 mmHg 86%
    17:00 +7°C° 0 mm 5 mps 751 mmHg 87%
    18:00 +7°C° 0 mm 5 mps 751 mmHg 87%
    19:00 +7°C° 0.1 mm 6 mps 751 mmHg 87%
    20:00 +7°C° 0.1 mm 6 mps 751 mmHg 87%
    21:00 +7°C° 0.1 mm 6 mps 750 mmHg 87%
    22:00 +7°C° 0.1 mm 6 mps 750 mmHg 88%
    23:00 +7°C° 0.1 mm 6 mps 750 mmHg 88%

    Tomorrow, 20 November, Wednesday

    Time Temperature Precipitation Wind Pressure Humidity
    00:00 +7°C° 0.1 mm 6 mps 750 mmHg 88%
    01:00 +6°C° 0.1 mm 7 mps 750 mmHg 86%
    02:00 +6°C° 0.1 mm 7 mps 749 mmHg 84%
    03:00 +6°C° 0.1 mm 7 mps 749 mmHg 81%
    04:00 +6°C° 0 mm 7 mps 748 mmHg 82%
    05:00 +5°C° 0 mm 7 mps 748 mmHg 82%
    06:00 +5°C° 0 mm 7 mps 748 mmHg 82%
    07:00 +5°C° 0 mm 7 mps 748 mmHg 83%
    08:00 +6°C° 0 mm 7 mps 748 mmHg 84%
    09:00 +6°C° 0 mm 7 mps 748 mmHg 86%
    10:00 +6°C° 0 mm 8 mps 748 mmHg 84%
    11:00 +6°C° 0 mm 8 mps 748 mmHg 82%
    12:00 +6°C° 0 mm 8 mps 747 mmHg 81%
    13:00 +5°C° 0 mm 8 mps 747 mmHg 81%
    14:00 +5°C° 0 mm 8 mps 746 mmHg 80%
    15:00 +5°C° 0 mm 7 mps 746 mmHg 80%
    16:00 +5°C° 0 mm 7 mps 746 mmHg 82%
    17:00 +4°C° 0 mm 7 mps 745 mmHg 84%
    18:00 +4°C° 0 mm 7 mps 745 mmHg 85%
    19:00 +4°C° 0 mm 7 mps 745 mmHg 86%
    20:00 +5°C° 0 mm 7 mps 744 mmHg 86%
    21:00 +5°C° 0 mm 7 mps 744 mmHg 86%
    22:00 +5°C° 0 mm 7 mps 744 mmHg 87%
    23:00 +6°C° 0 mm 7 mps 744 mmHg 87%

    Day after tomorrow, 21 November, Thursday

    Time Temperature Precipitation Wind Pressure Humidity
    00:00 +6°C° 0 mm 7 mps 743 mmHg 87%
    01:00 +6°C° 0.1 mm 7 mps 743 mmHg 88%
    02:00 +6°C° 0.1 mm 7 mps 742 mmHg 89%
    03:00 +6°C° 0.1 mm 8 mps 742 mmHg 89%
    04:00 +6°C° 0.3 mm 8 mps 742 mmHg 90%
    05:00 +7°C° 0.3 mm 8 mps 742 mmHg 90%
    06:00 +7°C° 0.3 mm 8 mps 741 mmHg 91%
    07:00 +6°C° 1 mm 8 mps 741 mmHg 91%
    08:00 +6°C° 1 mm 8 mps 741 mmHg 92%
    09:00 +6°C° 1 mm 8 mps 741 mmHg 92%
    10:00 +8°C° 1 mm 7 mps 740 mmHg 92%
    11:00 +8°C° 1 mm 7 mps 740 mmHg 92%
    12:00 +8°C° 1 mm 6 mps 740 mmHg 91%
    13:00 +8°C° 0.7 mm 6 mps 740 mmHg 89%
    14:00 +8°C° 0.7 mm 6 mps 739 mmHg 87%
    15:00 +8°C° 0.7 mm 5 mps 739 mmHg 85%
    16:00 +7°C° 0.3 mm 5 mps 739 mmHg 86%
    17:00 +7°C° 0.3 mm 5 mps 738 mmHg 87%
    18:00 +6°C° 0.3 mm 4 mps 738 mmHg 88%
    19:00 +6°C° 0.5 mm 4 mps 738 mmHg 87%
    20:00 +6°C° 0.5 mm 4 mps 738 mmHg 87%
    21:00 +6°C° 0.5 mm 4 mps 738 mmHg 86%
    22:00 +6°C° 0.3 mm 5 mps 738 mmHg 86%
    23:00 +6°C° 0.3 mm 5 mps 738 mmHg 86%

    22 November, Friday

    Time Temperature Precipitation Wind Pressure Humidity
    00:00 +6°C° 0.3 mm 5 mps 738 mmHg 87%
    01:00 +6°C° 0.1 mm 5 mps 738 mmHg 87%
    02:00 +5°C° 0.1 mm 5 mps 738 mmHg 87%
    03:00 +5°C° 0.1 mm 5 mps 738 mmHg 87%
    04:00 +5°C° 0.2 mm 5 mps 739 mmHg 88%
    05:00 +6°C° 0.2 mm 5 mps 739 mmHg 88%
    06:00 +6°C° 0.2 mm 5 mps 739 mmHg 88%
    07:00 +6°C° 0.4 mm 5 mps 739 mmHg 88%
    08:00 +7°C° 0.4 mm 5 mps 739 mmHg 87%
    09:00 +7°C° 0.4 mm 4 mps 738 mmHg 86%
    10:00 +7°C° 0.6 mm 5 mps 738 mmHg 87%
    11:00 +8°C° 0.6 mm 6 mps 738 mmHg 88%
    12:00 +8°C° 0.6 mm 6 mps 738 mmHg 89%
    13:00 +8°C° 0.3 mm 7 mps 737 mmHg 89%
    14:00 +8°C° 0.3 mm 7 mps 737 mmHg 89%
    15:00 +8°C° 0.3 mm 7 mps 737 mmHg 89%
    16:00 +8°C° 0.5 mm 7 mps 737 mmHg 89%
    17:00 +6°C° 0.5 mm 7 mps 737 mmHg 88%
    18:00 +6°C° 0.5 mm 7 mps 736 mmHg 88%
    19:00 +6°C° 0.6 mm 7 mps 736 mmHg 89%
    20:00 +6°C° 0.6 mm 7 mps 736 mmHg 89%
    21:00 +6°C° 0.6 mm 8 mps 736 mmHg 90%
    22:00 +6°C° 0.5 mm 7 mps 736 mmHg 91%
    23:00 +6°C° 0.5 mm 7 mps 735 mmHg 92%

    23 November, Saturday

    Time Temperature Precipitation Wind Pressure Humidity
    00:00 +6°C° 0.5 mm 7 mps 735 mmHg 94%
    01:00 +6°C° 1.2 mm 7 mps 735 mmHg 94%
    02:00 +6°C° 1.2 mm 7 mps 735 mmHg 95%
    03:00 +6°C° 1.2 mm 7 mps 735 mmHg 95%
    04:00 +7°C° 1.8 mm 6 mps 735 mmHg 95%
    05:00 +7°C° 1.8 mm 6 mps 735 mmHg 96%
    06:00 +7°C° 1.8 mm 6 mps 735 mmHg 96%
    07:00 +8°C° 1.7 mm 5 mps 735 mmHg 96%
    08:00 +8°C° 1.7 mm 5 mps 736 mmHg 96%
    09:00 +8°C° 1.7 mm 4 mps 736 mmHg 96%
    10:00 +8°C° 0.8 mm 4 mps 736 mmHg 95%
    11:00 +10°C° 0.8 mm 4 mps 737 mmHg 94%
    12:00 +10°C° 0.8 mm 4 mps 737 mmHg 93%
    13:00 +10°C° 0.7 mm 3 mps 738 mmHg 92%
    14:00 +10°C° 0.7 mm 3 mps 738 mmHg 91%
    15:00 +10°C° 0.7 mm 3 mps 739 mmHg 91%
    16:00 +10°C° 0.5 mm 3 mps 740 mmHg 92%
    17:00 +9°C° 0.5 mm 3 mps 740 mmHg 93%
    18:00 +9°C° 0.5 mm 2 mps 741 mmHg 94%
    19:00 +8°C° 0.3 mm 2 mps 742 mmHg 94%
    20:00 +8°C° 0.3 mm 2 mps 743 mmHg 94%
    21:00 +8°C° 0.3 mm 2 mps 743 mmHg 95%
    22:00 +8°C° 0 mm 2 mps 744 mmHg 94%
    23:00 +7°C° 0 mm 2 mps 744 mmHg 94%

    24 November, Sunday

    Time Temperature Precipitation Wind Pressure Humidity
    00:00 +7°C° 0 mm 2 mps 745 mmHg 94%
    01:00 +7°C° 0 mm 2 mps 745 mmHg 94%
    02:00 +7°C° 0 mm 2 mps 745 mmHg 95%
    03:00 +7°C° 0 mm 2 mps 746 mmHg 95%
    04:00 +7°C° 0 mm 2 mps 746 mmHg 95%
    05:00 +7°C° 0 mm 2 mps 746 mmHg 95%
    06:00 +7°C° 0 mm 2 mps 747 mmHg 94%
    07:00 +7°C° 0 mm 3 mps 747 mmHg 92%
    08:00 +7°C° 0 mm 3 mps 747 mmHg 90%
    09:00 +8°C° 0 mm 3 mps 747 mmHg 88%
    10:00 +7°C° 0 mm 4 mps 747 mmHg 88%
    11:00 +8°C° 0 mm 5 mps 747 mmHg 87%
    12:00 +9°C° 0 mm 6 mps 747 mmHg 87%
    13:00 +9°C° 0.5 mm 7 mps 746 mmHg 88%
    14:00 +9°C° 0.5 mm 8 mps 745 mmHg 90%
    15:00 +9°C° 0.5 mm 8 mps 744 mmHg 92%
    16:00 +8°C° 2.1 mm 9 mps 743 mmHg 93%
    17:00 +9°C° 2.1 mm 10 mps 743 mmHg 94%
    18:00 +11°C° 2.1 mm 11 mps 742 mmHg 95%
    19:00 +11°C° 3.2 mm 10 mps 741 mmHg 95%
    20:00 +11°C° 3.2 mm 10 mps 741 mmHg 96%
    21:00 +11°C° 3.2 mm 9 mps 741 mmHg 96%
    22:00 +11°C° 2.1 mm 8 mps 741 mmHg 95%
    23:00 +11°C° 2.1 mm 7 mps 741 mmHg 95%
    Show more